Location: Boiro
(42.6475°N, 8.8834°W)
Time: 00:55:49
(UTC+01:00)

Tiros 1 despin weight - Pass Details

Date: 07 December 2021
Orbit: 592 x 641 km, 48.2° (Epoch: 23 January)

Event Time Altitude Azimuth Distance (km) Brightness Sun altitude
Rises 12:04:16 0° 200° (SSW) 2,851 ? 22.0°
Reaches altitude 10° 12:07:03 10° 183° (S) 1,941 ? 22.1°
Maximum altitude 12:10:18 20° 136° (SE) 1,400 ? 22.3°
Drops below altitude 10° 12:13:31 10° 89° (E) 1,932 ? 22.5°
Sets 12:16:17 0° 73° (ENE) 2,831 ? 22.7°
